Weather in Tsa-Vedeno

Russia / Chechen Republic     43°01′15″N   46°03′19″E
В апреле 2022 года жителям России запретили посещать сайт meteo.paraplan.net по решению Генеральной прокуратуры. Аудитория сайта уменьшилась в 10 раз. Владельцы сайта не видят смысла в поддержке погодного сервера в таких условиях. Сайт будет закрыт в октябре.
temp.,
°C
wind,
m/s
gust,
m/s
humid.,
%
clouds,
%
prec.,
mm/h
press.,
hPa
HPBL,
m
4 october, tue
tue400:00+12e119434 0.0 101538
03:00+11w019584 0.0 101576
06:00+11se22894 0.0 101423
09:00+19ne125891 0.0 1012364
12:00+23n324794 0.0 1012822
15:00+23nnw325160 0.0 1013852
18:00+16sw118017 0.0 101611
21:00+15ssw21798 0.0 101716
5 october, wed
wed500:00+14ssw228624 0.0 101923
03:00+13ssw1184100 0.0 101912
06:00+13ssw118281 0.0 102012
09:00+18nnw216697 0.0 1020529
12:00+20nnw435991 0.0 1020974
15:00+18nw2370100 0.0 1022800
18:00+16wsw1477100 0.0 1024226
21:00+14nnw2390100 0.1 1025348
6 october, thu
thu600:00+12nw1194100 0.1 1025248
03:00+12nw1297100 0.4 1026246
06:00+12nnw1297100 0.3 1026197
09:00+12n2297100 0.6 1025236
12:00+12n2296100 0.3 1025312
15:00+11n1197100 0.9 1025253
18:00+11n1098100 0.4 1026213
21:00+11nne1198100 0.5 102699
7 october, fri
fri700:00+11nne119899 0.0 102572
03:00+11nne0198100 0.0 102584
06:00+11nne119899 0.0 102675
09:00+12nne119290 0.0 1025294
12:00+15nne228195 0.1 1024614
15:00+15nne127799 0.1 1023679
18:00+13w118455 0.0 102343
21:00+11s11920 0.0 102311
8 october, sat
sat800:00+10s11930 0.0 102212
03:00+10sse11912 0.0 102212
06:00+9sse11895 0.0 102211
09:00+15n217120 0.0 1021460
12:00+19n325597 0.0 1018819
15:00+19nnw21553 0.0 1016831
18:00+14ssw11785 0.0 101612
21:00+13ssw118085 0.0 101613